x

8461490 - New London, Ct (nlnc3) Weather Station

4:54 - Thu 25th May 2017 All times are EDT. -4 hours from GMT.

  • Wind
    3mph, 8mph gusts
  • Sea Temp 55°f
  • Luft Temp 58°f
  • Sea Pressure 1002.6mb
  • 8461490 - New London, Ct
  • 8461490 - New London, Ct

More Historic Weather Station data

Upgrade to MSW Pro to gain access to the past 30 days of data for over 8000 Wavebouys and Weather Stations around the globe.

Join Pro

Comparision Forecast

View Surf forecast
   
Do 05/25 4:54 3 8 mph 1002.6mb 55f 58f
4:48 6 10 mph 1002.5mb 56f 58f
4:42 7 10 mph 1002.5mb 56f 58f
4:36 5 8 mph 1002.8mb 56f 58f
4:30 5 10 mph 1002.8mb 55f 58f
4:24 5 10 mph 1003mb 56f 58f
4:18 3 8 mph 1003mb 56f 58f
4:12 7 10 mph 1002.7mb 56f 58f
4:06 5 7 mph 1003mb 56f 58f
4:00 5 6 mph 1003.4mb 56f 58f
3:54 5 9 mph 1003.2mb 56f 58f
3:48 5 9 mph 1003.3mb 56f 58f
3:42 6 11 mph 1002.8mb 55f 58f
3:36 6 8 mph 1003.1mb 56f 58f
3:30 8 10 mph 1003.5mb 56f 58f
3:24 5 8 mph 1003.7mb 56f 58f
3:18 3 8 mph 1003.7mb 56f 58f
3:12 6 11 mph 1003.8mb 55f 58f
3:06 5 8 mph 1003.8mb 56f 59f
3:00 2 11 mph 1003.9mb 56f 59f
2:54 9 14 mph 1004mb 55f 58f
2:48 7 10 mph 1004mb 56f 58f
2:42 6 15 mph 1004mb 56f 58f
2:36 6 9 mph 1004mb 54f 58f
2:30 5 8 mph 1004.2mb 54f 59f
2:24 5 14 mph 1004.3mb 54f 59f
2:18 6 10 mph 1004.3mb 55f 58f
2:12 7 11 mph 1004.3mb 54f 58f
2:06 6 10 mph 1004.4mb 55f 58f
2:00 6 9 mph 1004.3mb 55f 59f
1:54 5 9 mph 1004.3mb 54f 59f
1:48 7 13 mph 1004.3mb 54f 59f
1:42 11 17 mph 1004.4mb 54f 59f
1:36 11 16 mph 1004.5mb 54f 59f
1:30 9 18 mph 1004.5mb 54f 59f
1:24 11 16 mph 1004.5mb 54f 58f
1:18 9 15 mph 1004.6mb 54f 58f
1:12 9 13 mph 1004.7mb 54f 58f
1:06 10 14 mph 1005mb 54f 58f
1:00 9 14 mph 1005mb 54f 58f
12:54 9 16 mph 1005.3mb 54f 58f
12:48 9 16 mph 1005.2mb 54f 58f
12:42 8 16 mph 1005.2mb 54f 58f
12:36 7 15 mph 1005.1mb 54f 58f
12:30 10 14 mph 1005.4mb 54f 58f
12:24 10 20 mph 1005.4mb 54f 58f
12:18 10 18 mph 1005.6mb 54f 58f
12:12 13 16 mph 1005.8mb 54f 58f
12:06 10 16 mph 1006mb 54f 58f
12:00 11 17 mph 1006mb 54f 58f
11:54 10 16 mph 1005.9mb 54f 58f
11:48 11 16 mph 1005.8mb 54f 58f
11:42 10 14 mph 1006mb 53f 58f
11:36 5 13 mph 1006.3mb 53f 58f
11:30 9 15 mph 1006.2mb 54f 58f
11:24 6 13 mph 1006.2mb 54f 58f
11:18 11 17 mph 1006.1mb 54f 58f
11:12 9 14 mph 1006mb 53f 58f
11:06 13 16 mph 1006.2mb 53f 58f
11:00 9 13 mph 1006.4mb 53f 58f
10:54 8 17 mph 1006.3mb 53f 57f
10:48 8 15 mph 1006.3mb 53f 57f
10:42 9 13 mph 1006.2mb 53f 57f
10:36 11 21 mph 1006.3mb 54f 57f
10:30 13 20 mph 1006.3mb 54f 57f
10:24 10 22 mph 1006.3mb 54f 57f
10:18 16 23 mph 1006.3mb 54f 57f
10:12 9 21 mph 1006.4mb 53f 57f
10:06 11 22 mph 1006.2mb 53f 57f
10:00 11 18 mph 1006.2mb 54f 57f
9:54 9 21 mph 1006.5mb 54f 57f
9:48 9 15 mph 1006.6mb 54f 57f
9:42 7 16 mph 1006.6mb 53f 56f
9:36 10 15 mph 1006.4mb 54f 56f
9:30 10 17 mph 1006.7mb 53f 56f
9:24 9 13 mph 1006.9mb 53f 56f
9:18 8 13 mph 1007.2mb 53f 56f
9:12 9 14 mph 1007.4mb 54f 56f
9:06 7 10 mph 1007.3mb 54f 56f
9:00 7 13 mph 1007.6mb 54f 56f
8:54 8 13 mph 1007.6mb 54f 56f
8:48 6 14 mph 1007.6mb 54f 56f
8:42 8 11 mph 1007.7mb 54f 56f
8:36 6 13 mph 1007.6mb 54f 56f
8:30 6 13 mph 1007.7mb 54f 56f
8:24 5 11 mph 1007.8mb 54f 56f
8:18 6 11 mph 1007.8mb 54f 56f
8:12 6 9 mph 1007.9mb 54f 56f
8:06 6 9 mph 1008mb 54f 55f
8:00 5 9 mph 1008mb 54f 56f
7:54 6 9 mph 1007.9mb 54f 55f
7:48 5 9 mph 1007.9mb 54f 56f
7:42 7 10 mph 1008mb 54f 55f
7:36 3 6 mph 1008.1mb 54f 55f
7:30 3 7 mph 1008.2mb 54f 56f
7:24 5 6 mph 1008.2mb 54f 55f
7:18 6 8 mph 1008.3mb 54f 55f
7:12 6 7 mph 1008.4mb 54f 55f
7:06 5 6 mph 1008.5mb 54f 56f
7:00 3 7 mph 1008.6mb 53f 56f
6:54 5 7 mph 1008.6mb 53f 56f
6:48 5 7 mph 1008.6mb 53f 56f
6:42 2 7 mph 1008.7mb 53f 56f
6:36 5 6 mph 1008.7mb 53f 56f
6:30 3 6 mph 1008.6mb 53f 56f
6:24 5 6 mph 1008.6mb 53f 56f
6:18 3 8 mph 1008.8mb 53f 56f
6:12 6 11 mph 1008.7mb 53f 56f
6:06 7 8 mph 1008.7mb 53f 56f
6:00 6 9 mph 1008.5mb 53f 56f
5:54 6 11 mph 1008.7mb 53f 56f
5:48 6 10 mph 1008.7mb 54f 56f
5:42 7 10 mph 1008.6mb 54f 56f
5:36 6 9 mph 1008.5mb 54f 56f
5:30 6 9 mph 1008.5mb 54f 56f
5:24 5 9 mph 1008.5mb 56f 56f
5:18 5 9 mph 1008.7mb 57f 56f
5:12 5 8 mph 1008.7mb 58f 56f
5:06 3 8 mph 1008.9mb 58f 56f
5:00 3 7 mph 1008.8mb 58f 56f
4:54 6 8 mph 1008.8mb 58f 56f
4:48 6 9 mph 1008.9mb 58f 56f
4:42 3 7 mph 1009mb 58f 56f
4:36 5 8 mph 1009.1mb 58f 56f
4:30 3 6 mph 1009.1mb 58f 56f
4:24 8 11 mph 1009.2mb 58f 56f
4:18 5 9 mph 1009.2mb 58f 56f
4:12 6 9 mph 1009.2mb 58f 56f
4:06 2 7 mph 1009.2mb 58f 56f
4:00 3 7 mph 1009.3mb 58f 56f
3:54 3 7 mph 1009.2mb 58f 56f
3:48 5 6 mph 1009.1mb 58f 56f
3:42 3 9 mph 1009.2mb 58f 56f
3:36 5 6 mph 1009.5mb 58f 56f
3:30 3 6 mph 1009.4mb 58f 56f
3:24 3 8 mph 1009.3mb 58f 56f
3:18 3 5 mph 1009.3mb 58f 56f
3:12 5 6 mph 1009.2mb 58f 56f
3:06 5 8 mph 1009.3mb 58f 56f
3:00 3 6 mph 1009.6mb 58f 56f
2:54 3 7 mph 1009.5mb 58f 56f
2:48 3 6 mph 1009.5mb 58f 56f
2:42 3 6 mph 1009.6mb 58f 56f
2:36 2 7 mph 1009.7mb 57f 56f
2:30 3 6 mph 1009.7mb 57f 56f
2:24 3 5 mph 1009.6mb 57f 56f
2:18 3 7 mph 1009.5mb 57f 56f
2:12 5 7 mph 1009.6mb 57f 56f
2:06 2 6 mph 1009.8mb 57f 56f
2:00 2 5 mph 1009.7mb 56f 56f
1:54 5 7 mph 1009.7mb 56f 56f
1:48 2 5 mph 1009.7mb 56f 56f
1:42 3 5 mph 1009.7mb 55f 56f
1:36 2 6 mph 1009.6mb 55f 56f
1:30 3 8 mph 1009.6mb 55f 56f
1:24 3 6 mph 1009.8mb 55f 56f
1:18 3 7 mph 1010mb 55f 56f
1:12 3 6 mph 1010.1mb 55f 56f
1:06 3 6 mph 1010.2mb 55f 56f
1:00 2 5 mph 1010.4mb 55f 56f
12:54 3 5 mph 1010.6mb 55f 56f
12:48 2 3 mph 1010.7mb 55f 56f
12:42 3 7 mph 1010.8mb 55f 56f
12:36 2 3 mph 1010.9mb 55f 56f
12:30 1 3 mph 1010.9mb 55f 56f
12:24 2 3 mph 1010.8mb 55f 56f
12:18 3 5 mph 1010.8mb 55f 57f
12:12 3 5 mph 1010.8mb 54f 57f
12:06 1 3 mph 1010.9mb 54f 56f
12:00 2 3 mph 1010.8mb 54f 56f
Mi 05/24 11:54 2 3 mph 1010.8mb 54f 56f
11:48 2 3 mph 1010.6mb 54f 56f
11:42 2 3 mph 1010.6mb 54f 56f
11:36 2 3 mph 1010.6mb 54f 56f
11:30 2 3 mph 1010.6mb 54f 56f
11:24 2 3 mph 1010.6mb 54f 56f
11:18 3 3 mph 1010.6mb 54f 56f
11:12 1 3 mph 1010.7mb 55f 57f
11:06 2 3 mph 1010.5mb 55f 57f
11:00 2 3 mph 1010.6mb 54f 57f
10:54 1 3 mph 1010.5mb 54f 57f
10:48 1 3 mph 1010.4mb 54f 57f
10:42 2 3 mph 1010.4mb 54f 57f
10:36 2 6 mph 1010.4mb 54f 58f
10:30 5 6 mph 1010.4mb 54f 57f
10:24 3 6 mph 1010.4mb 54f 58f
10:18 3 7 mph 1010.5mb 53f 58f
10:12 5 6 mph 1010.4mb 53f 58f
10:06 5 7 mph 1010.4mb 53f 58f
10:00 5 7 mph 1010.4mb 53f 58f
9:54 5 7 mph 1010.4mb 53f 58f
9:48 5 10 mph 1010.4mb 54f 58f
9:42 6 7 mph 1010.4mb 54f 58f
9:36 6 9 mph 1010.3mb 54f 58f
9:30 6 8 mph 1010.3mb 54f 58f
9:24 5 8 mph 1010.3mb 54f 59f
9:18 7 9 mph 1010.1mb 53f 59f
9:12 7 10 mph 1010mb 53f 59f
9:06 7 9 mph 1010.2mb 53f 59f
9:00 7 10 mph 1010.1mb 53f 59f
8:54 8 10 mph 1009.9mb 54f 58f
8:48 7 10 mph 1009.7mb 54f 58f
8:42 7 9 mph 1009.5mb 54f 58f
8:36 8 11 mph 1009.6mb 54f 59f
8:30 8 10 mph 1009.7mb 54f 59f
8:24 7 9 mph 1009.5mb 54f 59f
8:18 7 9 mph 1009.5mb 54f 59f
8:12 7 9 mph 1009.3mb 54f 59f
8:06 7 10 mph 1009.2mb 54f 60f
8:00 7 9 mph 1009.3mb 54f 60f
7:54 7 9 mph 1009.2mb 54f 60f
7:48 8 9 mph 1009.3mb 55f 60f
7:42 6 9 mph 1009.2mb 55f 61f
7:36 6 8 mph 1009mb 55f 61f
7:30 7 8 mph 1008.8mb 55f 61f
7:24 6 10 mph 1008.4mb 55f 61f
7:18 7 10 mph 1008mb 55f 62f
7:12 7 13 mph 1007.9mb 55f 62f
7:06 10 14 mph 1007.8mb 54f 62f
7:00 8 11 mph 1007.8mb 54f 62f
6:54 8 14 mph 1007.8mb 55f 62f
6:48 7 11 mph 1007.9mb 55f 62f
6:42 11 16 mph 1008.2mb 55f 63f
6:36 10 14 mph 1008.1mb 55f 63f
6:30 8 14 mph 1008.1mb 54f 64f
6:24 7 9 mph 1008mb 54f 64f
6:18 6 9 mph 1008mb 54f 64f
6:12 6 8 mph 1008.1mb 53f 63f
6:06 6 9 mph 1008.3mb 53f 63f
6:00 7 10 mph 1008.1mb 53f 63f
5:48 11 16 mph 1008mb 54f 62f
5:42 10 15 mph 1008.2mb 53f 62f
5:36 13 16 mph 1008.5mb 53f 61f
5:30 11 16 mph 1008.7mb 53f 61f
5:24 11 17 mph 1008.8mb 53f 61f
5:18 13 16 mph 1008.6mb 53f 61f
5:06 14 18 mph 1008.3mb 53f 61f
5:00 10 16 mph 1008.4mb 53f 62f
4:54 13 20 mph 1008.3mb 53f 61f
4:48 11 16 mph 1008.2mb 53f 62f
4:42 11 18 mph 1008.3mb 53f 62f
4:36 10 16 mph 1008.1mb 54f 63f
4:30 11 15 mph 1007.9mb 54f 62f
4:24 14 20 mph 1007.8mb 53f 62f
4:18 14 16 mph 1007.7mb 53f 62f
4:12 13 16 mph 1007.7mb 53f 62f
4:06 11 16 mph 1007.7mb 53f 62f
4:00 11 16 mph 1007.8mb 54f 62f
3:54 14 16 mph 1007.9mb 54f 62f
3:48 14 16 mph 1007.6mb 55f 63f
3:42 10 14 mph 1007.5mb 55f 64f
3:36 11 14 mph 1007.3mb 55f 64f
3:30 6 13 mph 1007.1mb 55f 64f
3:24 9 13 mph 1007.1mb 55f 64f
3:18 8 11 mph 1007.1mb 55f 64f
3:12 7 11 mph 1007.1mb 56f 65f
3:06 7 10 mph 1007.2mb 55f 64f
3:00 9 14 mph 1007mb 55f 65f
2:54 9 13 mph 1006.9mb 56f 65f
2:48 11 13 mph 1006.9mb 56f 66f
2:42 7 10 mph 1006.9mb 55f 66f
2:36 8 13 mph 1006.9mb 55f 65f
2:30 10 11 mph 1007mb 56f 65f
2:24 9 11 mph 1007.2mb 56f 65f
2:18 8 13 mph 1007.3mb 56f 65f
2:12 10 11 mph 1007.3mb 56f 65f
2:06 10 13 mph 1007.3mb 56f 65f
2:00 8 11 mph 1007.3mb 56f 65f
1:54 8 11 mph 1007.3mb 55f 65f
1:48 9 14 mph 1007.2mb 54f 64f
1:42 9 11 mph 1007.4mb 54f 65f
1:36 9 10 mph 1007.7mb 54f 64f
1:30 6 8 mph 1007.7mb 54f 65f
1:24 7 10 mph 1008mb 54f 63f
1:18 7 10 mph 1008.2mb 54f 64f
1:12 8 10 mph 1008.1mb 54f 64f
1:06 5 7 mph 1008.1mb 54f 64f
1:00 3 6 mph 1008mb 54f 65f
12:54 3 7 mph 1008mb 54f 65f
12:48 1 5 mph 1008mb 54f 65f
12:42 3 7 mph 1008mb 54f 64f
12:36 5 7 mph 1008mb 54f 64f
12:30 3 9 mph 1008mb 54f 64f
12:24 7 11 mph 1008mb 54f 63f
12:18 3 6 mph 1008mb 54f 64f
12:12 2 3 mph 1008mb 54f 64f
12:06 2 3 mph 1007.9mb 54f 63f
12:00 3 6 mph 1007.8mb 54f 62f
11:54 5 7 mph 1007.9mb 54f 62f
11:48 6 9 mph 1007.9mb 54f 62f
11:42 6 8 mph 1007.6mb 54f 62f
11:36 5 9 mph 1007.4mb 54f 61f
11:30 6 8 mph 1007.7mb 54f 61f
11:24 6 8 mph 1007.9mb 54f 60f
11:18 5 8 mph 1007.8mb 54f 60f
11:12 6 10 mph 1007.8mb 54f 60f
11:06 7 9 mph 1007.8mb 54f 60f
11:00 3 7 mph 1007.8mb 54f 60f
10:54 5 9 mph 1007.8mb 54f 59f
10:48 7 8 mph 1007.8mb 53f 59f
10:42 5 8 mph 1007.6mb 53f 59f
10:36 5 8 mph 1007.5mb 53f 59f
10:30 5 6 mph 1007.5mb 53f 59f
10:24 5 7 mph 1007.4mb 53f 59f
10:18 5 7 mph 1007.6mb 53f 58f
10:12 5 6 mph 1007.6mb 53f 59f
10:06 5 7 mph 1007.5mb 53f 59f
10:00 3 6 mph 1007.3mb 53f 59f
9:54 3 7 mph 1007.2mb 53f 58f
9:48 2 6 mph 1006.8mb 53f 58f
9:42 3 6 mph 1006.9mb 53f 58f
9:36 5 7 mph 1006.9mb 53f 58f
9:30 5 8 mph 1007.4mb 53f 58f
9:24 3 7 mph 1007.2mb 53f 58f
9:18 3 6 mph 1007.3mb 53f 58f
9:12 3 7 mph 1007.4mb 53f 58f
9:06 5 7 mph 1007.3mb 53f 58f
9:00 3 7 mph 1007mb 53f 58f
8:54 3 7 mph 1007.4mb 53f 57f
8:48 6 8 mph 1007.4mb 53f 57f
8:42 5 7 mph 1007.3mb 53f 57f
8:36 6 9 mph 1007.4mb 53f 57f
8:30 6 9 mph 1007.4mb 53f 57f
8:24 5 8 mph 1007.4mb 53f 57f
8:18 5 7 mph 1007.5mb 54f 57f
8:12 5 6 mph 1007.4mb 53f 57f
8:06 2 5 mph 1007.3mb 53f 57f
8:00 3 5 mph 1007.4mb 53f 57f
7:54 1 3 mph 1007.5mb 53f 57f
7:48 2 3 mph 1007.5mb 54f 57f
7:42 1 3 mph 1007.3mb 54f 57f
7:36 3 5 mph 1007.2mb 54f 56f
7:30 2 3 mph 1007.4mb 54f 56f
7:24 1 3 mph 1007.3mb 54f 56f
7:18  -  3 mph 1007.3mb 54f 56f
7:12 3 5 mph 1007mb 54f 56f
7:06 3 3 mph 1007.1mb 54f 56f
7:00 2 3 mph 1007.2mb 54f 56f
6:54 3 3 mph 1007.2mb 54f 56f
6:48 2 3 mph 1007.2mb 54f 56f
6:42 2 3 mph 1007.1mb 54f 56f
6:36 2 3 mph 1007.3mb 54f 56f
6:30 2 3 mph 1007.3mb 53f 56f
6:24 2 2 mph 1007.3mb 53f 56f
6:18 2 5 mph 1007.4mb 53f 56f
6:12 3 3 mph 1007.2mb 53f 56f
6:06 2 3 mph 1007.3mb 53f 56f
6:00 1 3 mph 1007.3mb 53f 56f
5:54 2 2 mph 1007.3mb 53f 56f
5:42  -  2 mph 1007.2mb 53f 56f
5:36  -  3 mph 1007.3mb 53f 56f
5:30 2 3 mph 1007.3mb 53f 56f
5:24 1 3 mph 1007.3mb 53f 56f
5:18 1 2 mph 1007.3mb 53f 56f
5:12 2 3 mph 1007.3mb 53f 56f
5:06 3 5 mph 1007.4mb 53f 56f
5:00 1 1 mph 1007.5mb 54f 56f
4:54  -  2 mph 1007.6mb 56f 56f
4:48 2 2 mph 1007.5mb 56f 56f
4:42 1 2 mph 1007.5mb 57f 56f
4:36 2 2 mph 1007.5mb 57f 56f
4:30 2 3 mph 1007.4mb 57f 56f
4:24 1 2 mph 1007.3mb 57f 56f
4:18 2 3 mph 1007.4mb 58f 56f
4:12 1 2 mph 1007.4mb 58f 56f
4:06  -  5 mph 1007.4mb 58f 56f
4:00 3 6 mph 1007.5mb 58f 56f
3:54 1 2 mph 1007.5mb 58f 56f
3:48 2 3 mph 1007.5mb 58f 56f
3:42 2 3 mph 1007.4mb 58f 56f
3:36 2 3 mph 1007.5mb 58f 57f
3:30 1 3 mph 1007.5mb 58f 56f
3:24 3 5 mph 1007.5mb 58f 56f
3:18 2 5 mph 1007.5mb 58f 56f
3:12 1 2 mph 1007.5mb 58f 57f
3:06  -  3 mph 1007.5mb 58f 57f
3:00 3 5 mph 1007.6mb 58f 57f
2:54 3 5 mph 1007.7mb 58f 57f
2:48 3 5 mph 1007.8mb - -
2:42 3 5 mph 1007.9mb - -
2:36 1 2 mph 1008mb - -
2:30  -  1 mph 1007.9mb 57f 57f
2:24 1 2 mph 1007.9mb 57f 57f
2:18 1 2 mph 1007.9mb 57f 57f
2:12 3 5 mph 1007.9mb 57f 57f
2:06 2 3 mph 1007.9mb 57f 57f
2:00 2 2 mph 1008mb 56f 57f
1:54  -  1 mph 1008.1mb 56f 57f
1:48 1 1 mph 1008.2mb 56f 57f
1:42 2 3 mph 1008.2mb 56f 57f
1:36  -  2 mph 1008.4mb 56f 57f
1:30 2 3 mph 1008.3mb 55f 57f
1:24 3 5 mph 1008.4mb 55f 58f
1:18 3 3 mph 1008.5mb 55f 58f
1:12 1 3 mph 1008.5mb 55f 58f
1:06 3 6 mph 1008.5mb 55f 58f
1:00 5 6 mph 1008.5mb 55f 58f
12:54 2 2 mph 1008.5mb 55f 58f
12:48 1 2 mph 1008.5mb 55f 58f
12:42 1 5 mph 1008.6mb 55f 58f
12:36 2 5 mph 1008.7mb 55f 58f
12:30 2 3 mph 1008.9mb 55f 59f
12:24 2 2 mph 1009mb 55f 59f
12:18 2 5 mph 1009mb 55f 59f
12:12 3 5 mph 1009.2mb 54f 59f
12:06 2 3 mph 1009.2mb 54f 59f
12:00 1 2 mph 1009.2mb 54f 59f
Di 05/23 11:54  -  2 mph 1009.3mb 54f 59f
11:48 2 2 mph 1009.5mb 54f 59f
11:42  -  1 mph 1009.6mb 54f 59f
11:36 1 2 mph 1009.8mb 54f 60f
11:30 2 2 mph 1009.9mb 54f 60f
11:24  -  3 mph 1010mb 54f 60f
11:18 2 5 mph 1010mb 54f 60f
11:12 2 5 mph 1010.1mb 54f 60f
11:06 3 5 mph 1010.2mb 54f 60f
11:00 3 5 mph 1010.2mb 54f 60f
10:54 3 5 mph 1010.2mb 54f 60f
10:48 5 6 mph 1010.1mb 54f 60f
10:42 3 5 mph 1010mb 54f 60f
10:36 2 3 mph 1010.2mb 54f 60f
10:30 3 5 mph 1010.2mb 54f 60f
10:24 3 5 mph 1010.2mb 54f 60f
10:18 3 5 mph 1010.1mb 53f 61f
10:12 2 5 mph 1010.2mb 54f 61f
10:06 5 6 mph 1010.3mb 53f 61f
10:00 6 6 mph 1010.4mb 53f 61f
9:54 6 7 mph 1010.4mb 53f 61f
9:48 3 5 mph 1010.4mb 53f 62f
9:42 2 3 mph 1010.4mb 53f 61f
9:36 2 3 mph 1010.2mb 53f 62f
9:30 1 3 mph 1010.2mb 53f 62f
9:24 2 3 mph 1010.1mb 53f 62f
9:18 2 5 mph 1010mb 53f 62f
9:12 2 5 mph 1010.1mb 53f 62f
9:06 5 6 mph 1010.1mb 53f 62f
9:00 2 3 mph 1010mb 53f 62f
8:54 1 2 mph 1009.9mb 53f 62f
8:48  -  2 mph 1009.9mb 53f 61f
8:42 2 3 mph 1009.9mb 53f 62f
8:36 3 5 mph 1010mb 53f 62f
8:30 3 5 mph 1010mb 53f 62f
8:24 3 6 mph 1010.1mb 53f 62f
8:18 3 5 mph 1010mb 53f 62f
8:12 1 5 mph 1009.9mb 53f 63f
8:06 3 7 mph 1009.9mb 53f 63f
8:00 6 7 mph 1009.9mb 53f 63f
7:54 3 5 mph 1009.8mb 53f 64f
7:48 3 5 mph 1009.7mb 53f 63f
7:42 2 7 mph 1009.6mb 53f 63f
7:36 5 6 mph 1009.9mb 53f 64f
7:30 3 6 mph 1009.7mb 53f 65f
7:24 5 6 mph 1009.8mb 53f 65f
7:18 6 8 mph 1009.7mb 53f 65f
7:12 6 8 mph 1009.7mb 53f 65f
7:06 6 8 mph 1009.8mb 53f 64f
7:00 7 8 mph 1009.7mb 53f 64f
6:54 6 7 mph 1009.7mb 53f 64f
6:48 6 7 mph 1009.6mb 53f 64f
6:42 6 6 mph 1009.5mb 53f 64f
6:36 6 7 mph 1009.5mb 53f 64f
6:30 6 7 mph 1009.6mb 54f 65f
6:24 5 6 mph 1009.6mb 54f 65f
6:18 3 5 mph 1009.7mb 53f 66f
6:12 2 5 mph 1009.8mb 53f 66f
6:06 2 6 mph 1009.8mb 53f 67f
6:00 5 6 mph 1009.9mb 53f 66f
5:54 3 7 mph 1010mb 53f 66f
5:48 6 7 mph 1010mb 53f 66f
5:42 6 8 mph 1009.9mb 53f 67f
5:36 5 8 mph 1009.9mb 53f 67f
5:30 6 9 mph 1010mb 53f 67f
5:24 6 10 mph 1010.1mb 53f 67f
5:18 7 11 mph 1010.2mb 53f 67f
5:12 6 11 mph 1010.2mb 53f 67f
5:06 8 10 mph 1010.2mb 53f 67f
5:00 7 11 mph 1010.2mb 53f 67f
4:54 3 8 mph 1010mb 53f 68f
4:48 5 11 mph 1010.1mb 53f 67f
4:42 8 11 mph 1010.3mb 53f 67f
4:36 7 10 mph 1010.3mb 53f 67f
4:30 7 10 mph 1010.2mb 53f 68f
4:24 8 11 mph 1010.1mb 53f 68f
4:18 9 11 mph 1010.3mb 53f 68f
4:12 9 13 mph 1010.2mb 53f 68f
4:06 9 13 mph 1010.2mb 53f 69f
4:00 8 13 mph 1010.3mb 53f 69f
3:54 9 13 mph 1010.4mb 53f 70f
3:48 8 10 mph 1010.4mb 53f 70f
3:42 7 9 mph 1010.4mb 53f 69f
3:36 3 3 mph 1010.5mb 53f 68f
3:30 2 3 mph 1010.5mb 53f 69f
3:24 2 3 mph 1010.6mb 53f 68f
3:18 3 3 mph 1010.7mb 54f 68f
3:12 3 3 mph 1010.8mb 56f 69f
3:06 2 3 mph 1010.8mb 54f 69f
3:00 2 5 mph 1010.8mb 54f 69f
2:54 2 5 mph 1010.8mb 54f 69f
2:48 2 3 mph 1010.8mb 55f 68f
2:42 2 5 mph 1010.9mb 55f 69f
2:36 2 3 mph 1010.9mb 56f 69f
2:30 2 7 mph 1011mb 56f 69f
2:24 3 6 mph 1011mb 55f 69f
2:18 3 7 mph 1011.1mb 56f 69f
2:12 3 7 mph 1011.1mb 56f 69f
2:06 5 8 mph 1011.1mb 56f 69f
2:00 2 5 mph 1011mb 56f 68f
1:54 2 5 mph 1011.1mb 56f 69f
1:48 2 6 mph 1011.2mb 57f 69f
1:42 5 8 mph 1011.4mb 56f 68f
1:36 6 8 mph 1011.5mb 56f 68f
1:30 7 8 mph 1011.5mb 56f 68f
1:24 2 8 mph 1011.5mb 55f 68f
1:18 5 8 mph 1011.6mb 55f 68f
1:12 5 9 mph 1011.7mb 55f 67f
1:06 2 8 mph 1011.6mb 55f 67f
1:00 3 7 mph 1011.6mb 55f 66f
12:54 2 8 mph 1011.7mb 55f 67f
12:48 5 8 mph 1011.6mb 54f 66f
12:42 5 7 mph 1011.7mb 54f 65f
12:36 3 6 mph 1011.9mb 54f 66f
12:30 3 8 mph 1012mb 54f 66f
12:24 5 6 mph 1012.1mb 54f 66f
12:18 3 7 mph 1012.2mb 54f 65f
12:12 3 8 mph 1012.5mb 54f 65f
12:06 3 8 mph 1012.6mb 54f 65f
12:00 5 6 mph 1012.7mb 54f 64f
11:54 2 8 mph 1012.9mb 55f 65f
11:48 3 7 mph 1012.9mb 55f 65f
11:42 5 10 mph 1012.9mb 55f 65f
11:36 3 8 mph 1012.9mb 54f 65f
11:30 5 8 mph 1012.9mb 54f 64f
11:24 3 6 mph 1013mb 54f 64f
11:18 2 8 mph 1012.9mb 53f 64f
11:12 5 7 mph 1012.8mb 53f 65f
11:06 2 10 mph 1012.7mb 53f 65f
11:00 6 9 mph 1012.7mb 53f 64f
10:54 6 9 mph 1012.7mb 53f 64f
10:48 5 10 mph 1012.6mb 53f 64f
10:42 7 11 mph 1012.6mb 53f 63f
10:36 8 13 mph 1012.7mb 54f 63f
10:30 9 13 mph 1013mb 54f 63f
10:24 7 11 mph 1013mb 54f 63f
10:18 9 13 mph 1012.9mb 53f 63f
10:12 7 11 mph 1012.9mb 53f 62f
10:06 9 13 mph 1012.7mb 53f 62f
10:00 8 14 mph 1012.8mb 53f 62f
9:54 8 14 mph 1012.8mb 53f 62f
9:48 7 10 mph 1012.9mb 53f 62f
9:42 5 11 mph 1013mb 53f 62f
9:36 6 8 mph 1013.1mb 53f 62f
9:30 6 9 mph 1013.2mb 53f 61f
9:24 3 10 mph 1013.4mb 53f 62f
9:18 2 7 mph 1013.5mb 53f 61f
9:12 5 9 mph 1013.4mb 54f 60f
9:06 5 8 mph 1013.3mb 53f 60f
9:00 5 10 mph 1013.4mb 53f 60f
8:54 5 10 mph 1013.4mb 53f 60f
8:48 6 9 mph 1013.5mb 53f 60f
8:42 5 10 mph 1013.4mb 53f 60f
8:36 5 9 mph 1013.3mb 53f 60f
8:30 8 13 mph 1013.4mb 53f 59f
8:24 8 11 mph 1013.4mb 53f 59f
8:18 8 11 mph 1013.6mb 53f 60f
8:12 6 9 mph 1013.6mb 53f 59f
8:06 2 7 mph 1013.4mb 53f 60f
8:00 6 9 mph 1013.5mb 53f 59f
7:54 6 9 mph 1013.4mb 53f 59f
7:48 6 9 mph 1013.4mb 53f 58f
7:42 5 9 mph 1013.4mb 53f 58f
7:36 7 9 mph 1013.5mb 53f 58f
7:30 7 11 mph 1013.4mb 53f 58f
7:24 5 7 mph 1013.3mb 53f 58f
7:18 3 8 mph 1013.2mb 54f 58f
7:12 5 9 mph 1013.3mb 53f 58f
7:06 5 8 mph 1013.4mb 53f 58f
7:00 3 6 mph 1013.3mb 53f 58f
6:54 3 8 mph 1013.2mb 53f 57f
6:48 5 7 mph 1013.2mb 53f 56f
6:42 5 7 mph 1013.1mb 53f 56f
6:36 3 7 mph 1013.1mb 54f 56f
6:30 5 7 mph 1013mb 53f 56f
6:24 6 8 mph 1013.2mb 54f 56f
6:18 6 8 mph 1013.1mb 54f 56f
6:12 6 8 mph 1013mb 54f 55f
6:06 5 9 mph 1013mb 53f 55f
6:00 6 10 mph 1013.2mb 53f 55f
5:54 7 10 mph 1013.3mb 53f 55f
5:48 7 8 mph 1013.2mb 53f 55f
5:42 7 9 mph 1013.2mb 53f 55f
5:36 7 9 mph 1013.1mb 53f 55f
5:30 6 9 mph 1012.9mb 53f 55f
5:24 6 8 mph 1012.9mb 53f 55f
5:18 6 9 mph 1012.9mb 54f 56f
5:12 7 9 mph 1012.7mb 54f 56f
5:06 7 9 mph 1012.7mb 54f 56f
5:00 7 11 mph 1012.7mb 53f 56f
4:54 8 11 mph 1012.7mb 53f 56f
4:48 9 14 mph 1012.6mb 55f 56f
4:42 9 13 mph 1012.6mb 55f 56f
4:36 9 13 mph 1012.6mb 55f 56f
4:30 7 13 mph 1012.6mb 55f 56f
4:24 8 14 mph 1012.7mb 54f 56f
4:18 9 13 mph 1012.7mb 53f 56f
4:12 8 10 mph 1012.6mb 53f 56f
4:06 7 10 mph 1012.6mb 53f 56f
4:00 6 9 mph 1012.6mb 54f 56f
3:54 6 10 mph 1012.8mb 55f 56f
3:48 7 11 mph 1012.8mb 56f 56f
3:42 7 10 mph 1012.8mb 58f 57f
3:36 7 10 mph 1012.8mb 59f 56f
3:30 8 10 mph 1012.9mb 59f 56f
3:24 7 10 mph 1013mb 59f 56f
3:18 7 9 mph 1013mb 59f 56f
3:12 6 7 mph 1013mb 59f 56f
3:06 3 7 mph 1012.9mb 59f 56f
3:00 3 6 mph 1012.9mb 59f 56f
2:54 5 7 mph 1012.8mb 59f 56f
2:48 6 8 mph 1012.7mb 59f -
2:42 6 10 mph 1012.6mb 60f -
2:36 2 8 mph 1012.5mb 60f -
2:30 3 8 mph 1012.5mb 59f 57f
2:24 6 8 mph 1012.7mb 59f 57f
2:18 6 8 mph 1012.9mb 59f 57f
2:12 3 6 mph 1012.9mb 59f 57f
2:06 5 6 mph 1013mb 59f 57f
2:00 5 7 mph 1012.9mb 58f 57f
1:54 5 7 mph 1012.8mb 58f 57f
1:48 5 7 mph 1012.7mb 58f 57f
1:42 5 8 mph 1012.6mb 58f 57f
1:36 5 7 mph 1012.9mb 58f 57f
1:30 5 7 mph 1012.9mb 58f 57f
1:24 6 7 mph 1012.8mb 58f 57f
1:18 5 6 mph 1012.9mb 58f 57f
1:12 3 6 mph 1012.9mb 58f 57f
1:06 3 5 mph 1013mb 57f 57f
1:00 3 5 mph 1013.2mb 56f 57f
12:54 2 3 mph 1013.2mb 56f 57f
12:48 1 3 mph 1013.2mb 56f 57f
12:42 2 2 mph 1013.2mb 56f 57f
12:36 1 2 mph 1013.3mb 55f 57f
12:30  -  1 mph 1013.4mb 55f 57f
12:24  -  2 mph 1013.5mb 55f 57f
12:18 1 2 mph 1013.6mb 55f 57f
12:12 1 1 mph 1013.4mb 55f 57f
12:06 2 3 mph 1013.3mb 55f 57f
12:00 2 3 mph 1013.3mb 55f 57f
Mo 05/22 11:54 1 2 mph 1013.5mb 54f 57f
11:48  -  0 mph 1013.6mb 54f 57f
11:42  -  1 mph 1013.7mb 55f 57f
11:36 1 1 mph 1013.8mb 54f 57f
11:30  -  1 mph 1013.7mb 54f 57f
11:24  -  2 mph 1013.8mb 54f 57f
11:18 2 3 mph 1013.8mb 54f 57f
11:12 2 3 mph 1013.8mb 55f 57f
11:06 2 3 mph 1013.7mb 55f 57f
11:00 1 3 mph 1013.9mb 54f 57f
10:54 3 6 mph 1013.9mb 54f 57f
10:48 5 7 mph 1014mb 55f 57f
10:42 6 7 mph 1014.2mb 54f 57f
10:36 6 8 mph 1014.3mb 54f 57f
10:30 5 6 mph 1014.4mb 54f 57f
10:24 5 6 mph 1014.5mb 53f 57f
10:18 3 5 mph 1014.6mb 53f 57f
10:12 3 6 mph 1014.6mb 53f 57f
10:06 5 7 mph 1014.7mb 53f 57f
10:00 5 6 mph 1014.7mb 54f 57f
9:54 6 7 mph 1014.7mb 54f 57f
9:48 6 8 mph 1014.8mb 54f 57f
9:42 5 6 mph 1014.8mb 53f 56f
9:36 6 8 mph 1014.8mb 53f 57f
9:30 3 6 mph 1014.8mb 54f 56f
9:24 3 5 mph 1014.7mb 54f 56f
9:18 2 6 mph 1014.7mb 54f 56f
9:12 3 7 mph 1014.7mb 53f 57f
9:06 5 6 mph 1014.8mb 53f 56f
9:00 5 7 mph 1014.9mb 53f 56f
8:54 5 8 mph 1014.8mb 53f 56f
8:48 6 8 mph 1014.8mb 53f 56f
8:42 3 7 mph 1015mb 53f 56f
8:36 5 7 mph 1015.1mb 53f 56f
8:30 5 7 mph 1015.1mb 52f 56f
8:24 6 7 mph 1015.1mb 53f 56f
8:18 5 9 mph 1015.2mb 53f 56f
8:12 7 11 mph 1015.2mb 53f 56f
8:06 9 10 mph 1015.2mb 53f 56f
8:00 8 10 mph 1015.2mb 53f 56f
7:54 7 9 mph 1015.2mb 53f 56f
7:48 6 10 mph 1015.3mb 53f 56f
7:42 6 8 mph 1015.4mb 53f 55f
7:36 5 9 mph 1015.4mb 53f 55f
7:30 5 6 mph 1015.5mb 53f 55f
7:24 5 6 mph 1015.6mb 53f 55f
7:18 3 7 mph 1015.7mb 53f 55f
7:12 3 6 mph 1015.8mb 53f 55f
7:06 5 7 mph 1015.8mb 53f 55f
7:00 3 5 mph 1015.9mb 53f 55f
6:54 5 6 mph 1016mb 53f 55f
6:48 5 8 mph 1016mb 53f 54f
6:42 6 9 mph 1016mb 53f 55f
6:36 6 8 mph 1016.1mb 53f 55f
6:30 6 8 mph 1016.1mb 53f 55f
6:24 6 9 mph 1016.2mb 53f 54f
6:18 6 9 mph 1016.2mb 53f 54f
6:12 6 9 mph 1016.3mb 54f 54f
6:06 7 13 mph 1016.3mb 54f 54f
6:00 8 11 mph 1016.4mb 53f 54f
5:54 7 8 mph 1016.5mb 53f 54f
5:48 8 10 mph 1016.6mb 54f 54f
5:42 7 13 mph 1016.7mb 54f 54f
5:36 7 11 mph 1016.7mb 54f 54f
5:30 7 13 mph 1016.8mb 53f 54f
5:24 8 11 mph 1016.8mb 54f 54f
5:18 8 15 mph 1016.8mb 53f 54f
5:12 10 16 mph 1016.9mb 53f 53f
5:06 10 14 mph 1017mb 53f 53f
5:00 9 13 mph 1017.1mb 53f 54f
4:54 8 14 mph 1017.2mb 54f 53f
4:48 7 11 mph 1017.4mb 53f 54f
4:42 9 14 mph 1017.5mb 54f 53f
4:36 9 11 mph 1017.6mb 54f 53f
4:30 7 11 mph 1017.8mb 53f 53f
4:24 7 9 mph 1018mb 53f 53f
4:18 6 10 mph 1018.1mb 55f 53f
4:12 8 13 mph 1018.1mb 55f 53f
4:06 8 13 mph 1018mb 56f 53f
4:00 7 11 mph 1018mb 56f 53f
3:54 8 11 mph 1018.1mb 56f 53f
3:48 7 11 mph 1018.2mb 56f 53f
3:42 8 13 mph 1018.3mb 56f 52f
3:36 6 7 mph 1018.5mb 54f 52f
3:30 5 8 mph 1018.6mb 55f 52f
3:24 5 7 mph 1018.8mb 54f 52f
3:18 5 8 mph 1018.9mb 54f 52f
3:12 7 9 mph 1019.1mb 54f 51f
3:06 6 8 mph 1019.2mb 54f 51f
3:00 5 8 mph 1019.3mb 54f 51f
2:54 6 9 mph 1019.3mb 55f 51f
2:48 5 9 mph 1019.3mb 55f 51f
2:42 7 10 mph 1019.4mb 57f 51f
2:36 8 11 mph 1019.4mb 55f 52f
2:30 8 15 mph 1019.4mb 57f 52f
2:24 10 15 mph 1019.4mb 56f 53f
2:18 8 10 mph 1019.4mb 56f 53f
2:12 8 14 mph 1019.4mb 56f 53f
2:06 9 13 mph 1019.5mb 56f 53f
2:00 9 11 mph 1019.6mb 56f 53f
1:54 10 13 mph 1019.9mb 56f 53f
1:48 10 15 mph 1020.1mb 56f 53f
1:42 14 16 mph 1020.2mb 56f 53f
1:36 15 18 mph 1020.3mb 56f 54f
1:30 15 17 mph 1020.2mb 56f 54f
1:24 15 17 mph 1020.2mb 55f 54f
1:18 11 13 mph 1020.3mb 56f 55f
1:12 11 14 mph 1020.2mb 55f 55f
1:06 10 13 mph 1020.3mb 55f 55f
1:00 9 15 mph 1020.3mb 55f 55f
12:54 10 14 mph 1020.3mb 56f 56f
12:48 10 14 mph 1020.4mb 55f 55f
12:42 11 14 mph 1020.4mb 56f 55f
12:36 11 14 mph 1020.5mb 55f 56f
12:30 10 16 mph 1020.5mb 55f 56f
12:24 11 15 mph 1020.5mb 56f 56f
12:18 13 16 mph 1020.5mb 55f 56f
12:12 11 15 mph 1020.6mb 55f 56f
12:06 10 15 mph 1020.6mb 55f 56f
12:00 11 15 mph 1020.7mb 54f 56f
11:54 10 16 mph 1020.7mb 54f 56f
11:48 11 15 mph 1020.8mb 54f 56f
11:42 11 14 mph 1020.8mb 54f 56f
11:36 13 15 mph 1021mb 54f 56f
11:30 9 13 mph 1021mb 54f 56f
11:24 9 15 mph 1021mb 54f 56f
11:18 10 15 mph 1021.1mb 54f 56f
11:12 11 15 mph 1021.3mb 53f 55f
11:06 11 14 mph 1021.5mb 54f 55f
11:00 10 15 mph 1021.5mb 54f 55f
10:54 9 14 mph 1021.6mb 53f 56f
10:48 11 16 mph 1021.6mb 53f 55f
10:42 11 15 mph 1021.5mb 53f 55f
10:36 11 16 mph 1021.5mb 53f 55f
10:30 13 17 mph 1021.5mb 53f 55f
10:24 13 16 mph 1021.7mb 53f 55f
10:18 11 17 mph 1021.9mb 53f 55f
10:12 11 15 mph 1021.9mb 54f 55f
10:06 10 14 mph 1022.1mb 54f 55f
10:00 9 14 mph 1022.1mb 54f 55f
9:54 13 15 mph 1022.2mb 54f 55f
9:48 9 13 mph 1022.1mb 54f 55f
9:30 9 13 mph 1022.2mb 53f 55f
9:24 8 14 mph 1022.2mb 53f 54f
9:18 9 13 mph 1022.2mb 53f 54f
9:12 9 13 mph 1022.2mb 53f 54f
9:06 8 13 mph 1022.2mb 53f 54f
9:00 8 10 mph 1022.3mb 53f 54f
8:54 9 11 mph 1022.2mb 53f 54f
8:48 8 10 mph 1022.3mb 53f 54f
8:42 8 9 mph 1022.4mb 53f 54f
8:36 7 10 mph 1022.6mb 53f 54f
8:30 9 11 mph 1022.6mb 53f 54f
8:24 6 9 mph 1022.8mb 53f 54f
8:18 7 9 mph 1022.8mb 53f 53f
8:12 7 8 mph 1022.7mb 53f 53f
8:06 6 8 mph 1022.9mb 53f 53f
8:00 5 8 mph 1022.7mb 53f 53f
7:54 6 9 mph 1022.7mb 53f 53f
7:48 6 8 mph 1022.7mb 53f 53f
7:42 6 9 mph 1022.8mb 53f 53f
7:36 7 9 mph 1022.7mb 53f 53f
7:30 7 8 mph 1022.7mb 53f 53f
7:24 8 9 mph 1022.8mb 54f 53f
7:18 6 10 mph 1022.7mb 54f 53f
7:12 7 8 mph 1022.7mb 54f 53f
7:06 7 9 mph 1022.7mb 54f 53f
7:00 7 9 mph 1022.6mb 54f 53f
6:54 6 9 mph 1022.8mb 54f 53f
6:48 6 7 mph 1022.8mb 54f 53f
6:42 6 7 mph 1022.8mb 54f 53f
6:36 6 8 mph 1022.8mb 54f 53f
6:30 7 9 mph 1022.8mb 54f 53f
6:24 7 8 mph 1022.9mb 54f 53f
6:18 6 7 mph 1023mb 54f 53f
6:12 5 6 mph 1023.1mb 54f 53f
6:06 5 7 mph 1023.1mb 54f 53f
6:00 5 6 mph 1023.2mb 54f 53f
5:54 3 5 mph 1023.3mb 54f 53f
5:48 2 3 mph 1023.2mb 55f 53f
5:42 3 6 mph 1023.3mb 55f 53f
5:36 3 5 mph 1023.2mb 55f 53f
5:30 3 5 mph 1023.1mb 55f 54f
5:24 3 6 mph 1023.1mb 55f 53f
5:18 5 6 mph 1023mb 55f 54f
5:12 6 7 mph 1023mb 55f 54f
5:06 6 8 mph 1023mb 56f 54f
5:00 6 6 mph 1023.1mb 56f 55f
4:54 5 6 mph 1023.2mb 56f 54f
4:48 5 6 mph 1023.2mb 56f 54f
4:42 5 6 mph 1023.2mb 56f 55f
4:36 3 6 mph 1023.2mb 56f 55f
4:30 3 6 mph 1023.2mb 56f 55f
4:24 5 5 mph 1023.1mb 56f 54f
4:18 3 6 mph 1023.1mb 57f 55f
4:12 5 6 mph 1023.1mb 57f 55f
4:06 3 5 mph 1023mb 57f 54f
4:00 5 6 mph 1023mb 57f 55f
3:54 3 5 mph 1023mb 57f 54f
3:48 3 5 mph 1023.1mb 57f 55f
3:42 3 5 mph 1023.1mb 57f 55f
3:36 3 5 mph 1023.2mb 57f 55f
3:30 2 5 mph 1023.3mb 58f 55f
3:24 3 5 mph 1023.1mb 59f 55f
3:18 2 6 mph 1023mb 60f 55f
3:12 3 7 mph 1023.1mb 60f 55f
3:06 5 6 mph 1023.1mb 61f 55f
3:00 3 6 mph 1023.2mb 61f 55f
2:54 6 7 mph 1023mb 61f 55f
2:48 5 7 mph 1023.3mb 61f 55f
2:42 6 8 mph 1023.3mb 61f 55f
2:36 5 7 mph 1023.2mb 61f 55f
2:30 5 8 mph 1023.3mb 61f 55f
2:24 6 8 mph 1023.4mb 61f 55f
2:18 6 8 mph 1023.5mb 61f 55f
2:12 6 7 mph 1023.6mb 61f 55f
2:06 6 7 mph 1023.6mb 62f 55f
2:00 5 7 mph 1023.6mb 62f 55f
1:54 5 7 mph 1023.6mb 62f 55f
1:48 6 7 mph 1023.8mb 62f 55f
1:42 6 6 mph 1023.7mb 62f 55f
1:36 3 5 mph 1023.8mb 62f 55f
1:30 5 6 mph 1023.8mb 62f 55f
1:24 5 6 mph 1024mb 61f 55f
1:18 5 6 mph 1024.1mb 61f 55f
1:12 5 6 mph 1024.4mb 61f 55f
1:06 3 7 mph 1024.2mb 61f 55f
1:00 5 6 mph 1024.3mb 61f 55f
12:54 5 7 mph 1024.3mb 60f 55f
12:48 6 7 mph 1024.4mb 60f 55f
12:42 6 7 mph 1024.4mb 60f 55f
12:36 5 7 mph 1024.4mb 60f 56f
12:30 5 7 mph 1024.5mb 60f 56f
12:24 6 8 mph 1024.5mb 60f 56f
12:18 6 9 mph 1024.6mb 60f 56f
12:12 7 8 mph 1024.6mb 60f 56f
12:06 7 8 mph 1024.8mb 60f 56f
12:00 7 8 mph 1024.9mb 60f 56f
So 05/21 11:54 5 7 mph 1024.8mb 60f 56f
11:48 5 6 mph 1025mb 59f 56f
11:42 5 7 mph 1025.1mb 59f 56f
11:36 5 6 mph 1025mb 58f 56f
11:30 5 7 mph 1025mb 58f 56f
11:24 5 6 mph 1025.2mb 57f 56f
11:18 6 8 mph 1025.2mb 57f 56f
11:12 6 7 mph 1025.2mb 57f 56f
11:06 5 7 mph 1025.2mb 57f 56f
11:00 5 7 mph 1025.2mb 57f 56f
10:54 6 8 mph 1025.3mb 56f 56f
10:48 5 7 mph 1025.2mb 55f 57f
10:42 7 10 mph 1025.3mb 57f 57f
10:36 7 9 mph 1025.4mb 55f 57f
10:30 7 9 mph 1025.5mb 55f 57f
10:24 6 8 mph 1025.6mb 55f 57f
10:18 6 10 mph 1025.7mb 55f 57f
10:12 8 10 mph 1025.5mb 55f 57f
10:06 8 10 mph 1025.4mb 55f 57f
10:00 8 9 mph 1025.7mb 55f 57f
9:54 8 10 mph 1025.8mb 55f 57f